Regional Weather Roundup
Issued by NWS

Home | Current Version | Previous Version | Text Only | Print | Product List | Glossary On
Versions: 1 2 3 4 5 6 7 8 9 10 11 12 13 14 15 16 17 18 19 20 21 22 23 24 25 26 27 28 29 30 31 32 33 34 35 36 37 38 39 40 41 42 43 44 45 46 47 48 49 50
000
ASCA44 KEWX 270720
RWRMX

LATIN AMERICA AND CARIBBEAN REGIONAL WEATHER ROUNDUP
NATIONAL WEATHER SERVICE AUSTIN/SAN ANTONIO TX
100 AM CST THU NOV 27 2014

NOTE: "FAIR" INDICATED FEW OR NO CLOUDS BELOW 12,000 FEET WITH NO
SIGNIFICANT WEATHER AND/OR OBSTRUCTIONS TO VISIBILITY.

BAJA CALIFORNIA

CITY           SKY/WX    TMP DP  RH WIND       PRES   REMARKS
LA PAZ           N/A    N/A N/A N/A MISG        N/A
TIJUANA        CLEAR     59  25  27 CALM      30.15S

NORTHWESTERN MEXICO

CITY           SKY/WX    TMP DP  RH WIND       PRES   REMARKS

NORTHEASTERN MEXICO

CITY           SKY/WX    TMP DP  RH WIND       PRES   REMARKS
MONTERREY      CLEAR     48  37  66 W8        30.30S WCI  45
CD. VICTORIA   CLEAR     46  45  93 S6        30.34S WCI  43

WESTERN MEXICO

CITY           SKY/WX    TMP DP  RH WIND       PRES   REMARKS
DEL BAJIO      CLEAR     50  10  20 NE9       30.43F WCI  46
GUADALAJARA    PTCLDY    39  32  75 CALM      30.31R
MAZATLAN       CLEAR     54  48  82 N9        29.97S
P. VALLARTA    MOCLDY    64  57  77 NE7       29.96F
ZACATECAS      CLEAR     32  10  40 CALM      30.43F

CENTRAL MEXICO

CITY           SKY/WX    TMP DP  RH WIND       PRES   REMARKS
MEXICO CITY    CLEAR     48  12  23 NW5       30.45S WCI  46
MORELIA        CLEAR     37  30  75 CALM      30.34F
QUERETARO      CLEAR     39  30  70 E7        30.46S WCI  34
S. LUIS POTOSI PTCLDY    36  32  87 CALM      30.43F
TOLUCA         CLEAR     30  19  64 CALM      30.48F

SOUTHERN MEXICO

CITY           SKY/WX    TMP DP  RH WIND       PRES   REMARKS
ACAPULCO       CLEAR     79  75  89 NW5       29.90S

YUCATAN PENINSULA

CITY           SKY/WX    TMP DP  RH WIND       PRES   REMARKS
CANCUN         MOCLDY    72  61  68 N7        30.18R
COZUMEL        MOCLDY    70  63  78 N12G23    30.16S
MERIDA         PTCLDY    63  57  82 N5        30.23F
TAPACHULA        N/A    N/A N/A N/A MISG        N/A

CENTRAL AMERICA

CITY           SKY/WX    TMP DP  RH WIND       PRES   REMARKS

CARIBBEAN

CITY           SKY/WX    TMP DP  RH WIND       PRES   REMARKS
ARUBA          PTCLDY    81  75  83 E7        29.86F
KINGSTON       PTCLDY    79  73  83 NW7       29.94S
SAN JUAN       PTCLDY    75  73  94 SE3       29.97F
SANTO DOMINGO  PTCLDY    73  72  94 N5        29.94F
ST. MAARTEN    PTCLDY    77  66  69 E9        29.94F

$$



USA.gov is the U.S. government's official web portal to all federal, state and local government web resources and services.